Date String (YYYY-MM-DD hh:mm:ss) UTC,Instrument flags,Ambient pressure (hPa),Sample flow (lpm),Bypass flow (lpm),Sample temperature (°C),Ambient temperature (°C),ASC tube jacket temperature (°C),LED temperature (°C),Box temperature (°C),Sample RH (%),Span deviation,Mass concentration (μg/m³),Mass concentration (μg/m³),Mass concentration (μg/m³)
DateTimeUTC,F1_M11,P_M11,Q1_M11,Q2_M11,T1_M11,T2_M11,T3_M11,T4_M11,T5_M11,U1_M11,ZSPAN_M11,X0_M11,X2_M11,X1_M11
2022-11-11 14:00:00,,0828.2,4.98,0.00,22.7,22.2,00.0,31.4,24.7,09.3,0000.0,0008.21,0003.97,0003.46
2022-11-11 14:01:00,,0828.2,5.01,0.00,22.7,22.0,00.0,31.4,24.6,09.4,0000.0,0008.33,0003.94,0003.45
2022-11-11 14:02:00,,0828.2,5.01,0.00,22.7,21.7,00.0,31.4,24.6,09.4,0000.0,0008.35,0003.93,0003.44
2022-11-11 14:03:00,,0828.2,4.99,0.00,22.7,21.6,00.0,31.4,24.5,09.4,0000.0,0008.22,0003.95,0003.43
2022-11-11 14:04:00,,0828.4,5.01,0.00,22.7,21.4,00.0,31.4,24.5,09.4,0000.0,0008.13,0003.93,0003.43
2022-11-11 14:05:00,,0828.2,5.00,0.00,22.6,21.3,00.0,31.4,24.5,09.4,0000.0,0008.81,0003.95,0003.46
2022-11-11 14:06:00,,0828.2,4.99,0.00,22.6,21.2,00.0,31.4,24.4,09.4,0000.0,0009.33,0003.99,0003.50
2022-11-11 14:07:00,,0828.2,5.00,0.00,22.6,21.1,00.0,31.4,24.4,09.4,0000.0,0009.43,0004.06,0003.56
2022-11-11 14:08:00,,0828.3,4.99,0.00,22.6,21.1,00.0,31.4,24.4,09.5,0000.0,0009.53,0004.13,0003.60
2022-11-11 14:09:00,,0828.3,5.00,0.00,22.6,21.1,00.0,31.4,24.4,09.5,0000.0,0009.57,0004.16,0003.62
2022-11-11 14:10:00,,0828.3,5.01,0.00,22.6,21.2,00.0,31.4,24.4,09.6,0000.0,0009.93,0004.16,0003.64
2022-11-11 14:11:00,,0828.5,5.00,0.00,22.6,21.8,00.0,31.4,24.5,09.5,0000.0,0010.10,0004.16,0003.66
2022-11-11 14:12:00,,0828.4,5.00,0.00,22.7,22.6,00.0,31.4,24.7,09.5,0000.0,0009.78,0004.18,0003.68
2022-11-11 14:13:00,,0828.4,5.00,0.00,22.8,22.5,00.0,31.4,24.8,09.5,0000.0,0010.08,0004.19,0003.70
2022-11-11 14:14:00,,0828.5,5.00,0.00,22.8,22.1,00.0,31.4,24.7,09.5,0000.0,0010.04,0004.21,0003.73
2022-11-11 14:15:00,,0828.5,5.00,0.00,22.7,21.9,00.0,31.4,24.6,09.6,0000.0,0010.08,0004.22,0003.75
2022-11-11 14:16:00,,0828.5,4.99,0.00,22.7,21.7,00.0,31.4,24.6,09.6,0000.0,0010.06,0004.21,0003.75
2022-11-11 14:17:00,,0828.5,5.00,0.00,22.7,21.5,00.0,31.4,24.6,09.6,0000.0,0009.26,0004.19,0003.72
2022-11-11 14:18:00,,0828.5,5.00,0.00,22.7,21.4,00.0,31.5,24.5,09.6,0000.0,0009.34,0004.13,0003.67
2022-11-11 14:19:00,,0828.5,5.01,0.00,22.7,21.4,00.0,31.5,24.5,09.6,0000.0,0009.29,0004.07,0003.64
2022-11-11 14:20:00,,0828.5,5.00,0.00,22.7,21.3,00.0,31.5,24.5,09.6,0000.0,0009.27,0004.03,0003.62
2022-11-11 14:21:00,,0828.5,4.99,0.00,22.7,21.2,00.0,31.5,24.4,09.6,0000.0,0008.73,0004.02,0003.61
2022-11-11 14:22:00,,0828.5,5.01,0.00,22.6,21.1,00.0,31.5,24.4,09.7,0000.0,0008.29,0004.01,0003.62
2022-11-11 14:23:00,,0828.5,4.99,0.00,22.6,21.1,00.0,31.5,24.4,09.8,0000.0,0008.25,0003.99,0003.62
2022-11-11 14:24:00,,0828.6,5.00,0.00,22.6,21.1,00.0,31.4,24.4,09.7,0000.0,0007.67,0003.96,0003.61
2022-11-11 14:25:00,,0829.0,5.00,0.00,22.6,21.9,00.0,31.4,24.6,09.7,0000.0,0007.68,0003.95,0003.61
2022-11-11 14:26:00,,0829.0,4.99,0.00,22.7,22.7,00.0,31.4,24.8,09.6,0000.0,0007.24,0003.94,0003.60
2022-11-11 14:27:00,,0828.8,5.01,0.00,22.8,22.5,00.0,31.5,24.8,09.5,0000.0,0006.88,0003.94,0003.60
2022-11-11 14:28:00,,0829.0,4.99,0.00,22.8,22.1,00.0,31.5,24.7,09.4,0000.0,0007.27,0003.91,0003.59
2022-11-11 14:29:00,,0829.0,5.01,0.00,22.8,21.9,00.0,31.5,24.6,09.4,0000.0,0007.30,0003.92,0003.60
2022-11-11 14:30:00,,0829.2,5.00,0.00,22.8,21.6,00.0,31.5,24.6,09.3,0000.0,0007.43,0003.94,0003.61
2022-11-11 14:31:00,,0828.7,4.99,0.00,22.7,21.5,00.0,31.5,24.6,09.3,0000.0,0008.10,0003.95,0003.62
2022-11-11 14:32:00,,0828.7,5.01,0.00,22.7,21.4,00.0,31.5,24.5,09.3,0000.0,0008.44,0003.96,0003.62
2022-11-11 14:33:00,,0828.8,5.01,0.00,22.7,21.3,00.0,31.5,24.5,09.4,0000.0,0008.44,0003.95,0003.61
2022-11-11 14:34:00,,0828.6,4.99,0.00,22.7,21.2,00.0,31.5,24.4,09.4,0000.0,0009.28,0003.95,0003.61
2022-11-11 14:35:00,,0828.7,5.01,0.00,22.6,21.1,00.0,31.5,24.4,09.4,0000.0,0009.66,0003.97,0003.62
2022-11-11 14:36:00,,0829.0,4.99,0.00,22.6,21.0,00.0,31.5,24.4,09.4,0000.0,0010.44,0003.98,0003.62
2022-11-11 14:37:00,,0829.0,5.00,0.00,22.6,21.0,00.0,31.5,24.4,09.4,0000.0,0011.60,0003.98,0003.64
2022-11-11 14:38:00,,0829.2,5.01,0.00,22.6,21.0,00.0,31.5,24.3,09.4,0000.0,0011.60,0004.01,0003.67
2022-11-11 14:39:00,,0829.1,4.98,0.00,22.6,21.5,00.0,31.4,24.5,09.3,0000.0,0011.34,0004.05,0003.70
2022-11-11 14:40:00,,0828.9,5.01,0.00,22.7,22.4,00.0,31.4,24.7,09.3,0000.0,0011.16,0004.05,0003.72
2022-11-11 14:41:00,,0828.9,5.00,0.00,22.8,22.6,00.0,31.4,24.8,09.3,0000.0,0011.27,0004.05,0003.72
2022-11-11 14:42:00,,0828.7,4.99,0.00,22.8,22.2,00.0,31.5,24.7,09.4,0000.0,0010.99,0004.06,0003.72
2022-11-11 14:43:00,,0828.7,5.01,0.00,22.7,21.9,00.0,31.5,24.6,09.4,0000.0,0010.98,0004.05,0003.72
2022-11-11 14:44:00,,0828.7,4.99,0.00,22.7,21.5,00.0,31.5,24.6,09.5,0000.0,0010.95,0004.06,0003.72
2022-11-11 14:45:00,,0828.9,5.01,0.00,22.7,21.3,00.0,31.5,24.5,09.6,0000.0,0010.19,0004.07,0003.72
2022-11-11 14:46:00,,0829.1,4.99,0.00,22.7,21.1,00.0,31.5,24.4,09.6,0000.0,0009.88,0004.09,0003.72
2022-11-11 14:47:00,,0829.0,5.01,0.00,22.6,20.9,00.0,31.4,24.4,09.5,0000.0,0009.43,0004.11,0003.73
2022-11-11 14:48:00,,0829.2,5.01,0.00,22.6,20.7,00.0,31.4,24.3,09.5,0000.0,0008.21,0004.12,0003.72
2022-11-11 14:49:00,,0829.3,5.00,0.00,22.5,20.4,00.0,31.4,24.2,09.6,0000.0,0007.97,0004.12,0003.71
2022-11-11 14:50:00,,0829.3,4.98,0.00,22.4,20.3,00.0,31.4,24.1,09.6,0000.0,0008.67,0004.11,0003.69
2022-11-11 14:51:00,,0829.2,5.00,0.00,22.4,20.2,00.0,31.4,24.0,09.6,0000.0,0009.06,0004.11,0003.67
2022-11-11 14:52:00,,0829.2,5.01,0.00,22.3,20.1,00.0,31.3,24.0,09.6,0000.0,0009.24,0004.11,0003.66
2022-11-11 14:53:00,,0829.3,4.99,0.00,22.3,21.0,00.0,31.3,24.1,09.6,0000.0,0009.18,0004.10,0003.66
2022-11-11 14:54:00,,0829.0,5.01,0.00,22.4,22.1,00.0,31.2,24.4,09.6,0000.0,0008.68,0004.10,0003.66
2022-11-11 14:55:00,,0828.8,5.00,0.00,22.5,22.2,00.0,31.3,24.5,09.4,0000.0,0008.81,0004.12,0003.65
2022-11-11 14:56:00,,0828.9,4.99,0.00,22.5,21.8,00.0,31.3,24.4,09.4,0000.0,0009.48,0004.12,0003.64
2022-11-11 14:57:00,,0829.1,5.01,0.00,22.5,21.5,00.0,31.3,24.3,09.5,0000.0,0009.87,0004.08,0003.62
2022-11-11 14:58:00,,0829.2,4.99,0.00,22.5,21.3,00.0,31.3,24.3,09.6,0000.0,0010.09,0004.03,0003.61
2022-11-11 14:59:00,,0829.1,5.01,0.00,22.5,21.2,00.0,31.3,24.3,09.7,0000.0,0010.48,0004.03,0003.61
